[[{"header":{"parameterUnit":"m.s-1","parameterCategory":1,"la1":30.2991,"la2":30.254,"lo1":-89.0895,"lo2":-89.0444,"dy":0.0017,"dx":0.0017,"nx":28,"ny":28,"refTime":"2024-03-30T09:00:00:Z","depth":0,"parameterNumber":2,"parameterNumberName":"U-component_of_WINDS"},"data":[0,0,0,0,0,0,0,0,0,0,0,0,0,0,0,0,0,0,0,0,0,0,0,0,0,0,0,0,0,0,0,0,0,0,0,0,0,0,0,0,0,0,0,0,0,0,0,0,0,0,0,0,0,0,0,0,0,0,-2.4648,-2.4648,0,-2.4694,-2.4695,-2.4695,-2.4728,-2.4728,-2.4728,-2.4728,-2.4775,-2.4776,-2.4777,0,0,0,0,0,0,0,0,0,0,0,0,0,-2.4586,-2.4587,-2.4648,-2.4648,-2.4649,-2.4694,-2.4695,-2.4696,-2.4728,-2.4728,-2.4728,-2.4729,-2.4775,-2.4776,-2.4777,0,0,0,0,0,0,0,0,0,0,0,0,0,-2.462,-2.4587,-2.4648,-2.467,-2.4673,-2.4694,-2.4695,-2.4696,-2.4728,-2.4728,-2.4728,-2.4729,-2.4774,-2.4776,-2.4777,-2.4779,0,0,-2.4782,-2.4782,0,0,0,0,0,0,0,0,-2.4618,-2.4623,-2.4666,-2.4669,-2.4672,-2.4706,-2.469,-2.4724,-2.4727,-2.4707,-2.4728,-2.4729,-2.4751,-2.4755,-2.4763,-2.4781,-2.4783,-2.4782,-2.4783,-2.4783,-2.4784,0,0,0,0,0,0,0,-2.4616,-2.4621,-2.4666,-2.4667,-2.467,-2.4678,-2.4683,-2.4697,-2.4726,-2.4709,-2.4711,-2.4716,-2.4753,-2.4761,-2.4764,-2.4784,-2.4782,-2.4783,-2.4784,-2.4785,-2.4806,-2.4806,0,0,0,0,0,0,-2.461,-2.4619,-2.4665,-2.4668,-2.4645,-2.4679,-2.4685,-2.4694,-2.4726,-2.4732,-2.4716,-2.4718,-2.4758,-2.4762,-2.4766,-2.477,-2.4783,-2.4785,-2.4786,-2.4806,-2.4806,-2.4805,0,0,0,0,0,0,-2.4609,-2.4614,-2.4663,-2.4644,-2.4651,-2.468,-2.469,-2.4695,-2.4703,-2.4732,-2.4737,-2.4719,-2.4759,-2.4764,-2.4775,-2.4772,-2.4785,-2.4787,-2.4807,-2.4806,-2.4806,-2.4778,0,0,0,0,0,0,-2.4607,-2.4613,-2.4614,-2.4644,-2.4651,-2.4672,-2.469,-2.4696,-2.4706,-2.4709,-2.4736,-2.4741,-2.476,-2.4773,-2.4777,-2.4774,-2.4788,-2.4807,-2.4806,-2.4806,-2.4779,-2.4776,-2.4774,0,0,0,0,0,-2.4604,-2.4604,-2.4614,-2.462,-2.4654,-2.4672,-2.4676,-2.4698,-2.4706,-2.4707,-2.4725,-2.474,-2.4772,-2.4774,-2.4779,-2.4776,-2.4807,-2.4807,-2.4806,-2.478,-2.4777,-2.4774,0,0,0,0,0,0,-2.4574,-2.4609,-2.462,-2.4629,-2.4647,-2.4677,-2.4679,-2.4694,-2.4709,-2.4711,-2.4737,-2.4743,-2.4752,-2.4766,-2.4767,-2.478,-2.4791,-2.4792,-2.477,-2.4767,-2.4765,-2.4761,-2.4789,0,0,0,0,0,-2.4568,-2.458,-2.461,-2.4615,-2.4624,-2.465,-2.4658,-2.4674,-2.4693,-2.4701,-2.472,-2.4738,-2.4752,-2.4761,-2.4775,-2.4782,-2.4788,-2.4782,-2.478,-2.4777,-2.4777,-2.4781,-2.4779,-2.4803,-2.4803,-2.4803,0,0,-2.4556,-2.4577,-2.4583,-2.461,-2.4625,-2.4637,-2.4656,-2.4667,-2.4676,-2.4702,-2.4715,-2.4729,-2.4751,-2.476,-2.4765,-2.4772,-2.4772,-2.4776,-2.4774,-2.4775,-2.478,-2.4777,-2.4775,-2.4802,-2.4803,-2.4803,0,0,-2.4541,-2.4558,-2.4564,-2.4579,-2.4603,-2.462,-2.4622,-2.465,-2.466,-2.4673,-2.4693,-2.4704,-2.4728,-2.4742,-2.4753,-2.4743,-2.4757,-2.4747,-2.4733,-2.4737,-2.4735,-2.4733,-2.4729,-2.4728,-2.4747,-2.4747,-2.4747,0,-2.4523,-2.4541,-2.4565,-2.4575,-2.4586,-2.4612,-2.4618,-2.4632,-2.4658,-2.4665,-2.4673,-2.4703,-2.472,-2.4732,-2.473,-2.4738,-2.474,-2.4744,-2.4734,-2.4732,-2.4731,-2.4727,-2.4726,-2.4745,-2.4746,-2.4746,-2.4746,0,-2.4518,-2.453,-2.4532,-2.4558,-2.4569,-2.4578,-2.4603,-2.4611,-2.4626,-2.4642,-2.4655,-2.4676,-2.4695,-2.4699,-2.4713,-2.4714,-2.4717,-2.4729,-2.4741,-2.4727,-2.4724,-2.4723,-2.4743,-2.4744,-2.4744,-2.4745,0,0,-2.4483,-2.4522,-2.4523,-2.4534,-2.4563,-2.4572,-2.4582,-2.4601,-2.4607,-2.4625,-2.4633,-2.4653,-2.4664,-2.4676,-2.4692,-2.4696,-2.4686,-2.4707,-2.4708,-2.4701,-2.4687,-2.4677,-2.4675,-2.4696,-2.4696,-2.4696,-2.4685,0,-2.4471,-2.4489,-2.4511,-2.4521,-2.4533,-2.4557,-2.4565,-2.4583,-2.4599,-2.4611,-2.4629,-2.4642,-2.4656,-2.4663,-2.4668,-2.4686,-2.4683,-2.4687,-2.4703,-2.4703,-2.4695,-2.4674,-2.4664,-2.4652,-2.4684,-2.4684,-2.4684,0,-2.4459,-2.4476,-2.4487,-2.4514,-2.452,-2.4526,-2.4546,-2.4557,-2.4578,-2.4589,-2.4603,-2.462,-2.4631,-2.4643,-2.4658,-2.466,-2.4668,-2.4678,-2.4678,-2.4679,-2.4691,-2.4673,-2.4649,-2.4647,-2.4682,-2.4682,-2.4682,0,-2.4431,-2.4457,-2.4467,-2.4476,-2.4508,-2.4512,-2.4526,-2.4547,-2.4557,-2.4574,-2.4581,-2.4599,-2.4608,-2.4622,-2.4643,-2.465,-2.4656,-2.4669,-2.4665,-2.4664,-2.4664,-2.4663,-2.4639,-2.4671,-2.4671,-2.4671,-2.4671,0,-2.4414,-2.442,-2.4455,-2.4461,-2.4468,-2.4493,-2.45,-2.4516,-2.4534,-2.4544,-2.4566,-2.4575,-2.4604,-2.4615,-2.4633,-2.4642,-2.4646,-2.4655,-2.466,-2.4653,-2.4651,-2.4657,-2.4658,-2.4671,-2.4671,-2.4671,-2.4671,0,-2.4384,-2.4407,-2.442,-2.4449,-2.4457,-2.4461,-2.4486,-2.4493,-2.451,-2.4522,-2.4526,-2.4554,-2.4569,-2.4592,-2.4614,-2.4626,-2.4632,-2.4639,-2.4624,-2.4627,-2.4621,-2.462,-2.4599,-2.4597,-2.463,-2.463,-2.463,0,-2.4371,-2.4376,-2.4406,-2.4414,-2.4427,-2.444,-2.445,-2.4476,-2.4486,-2.451,-2.4514,-2.4531,-2.4545,-2.4568,-2.459,-2.4606,-2.4614,-2.4606,-2.4617,-2.461,-2.4613,-2.4612,-2.4612,-2.4602,-2.4602,-2.4601,-2.4601,0,-2.4345,-2.4357,-2.4371,-2.4389,-2.4401,-2.4417,-2.4433,-2.4439,-2.4468,-2.4478,-2.4494,-2.4505,-2.4528,-2.4544,-2.4564,-2.4578,-2.4594,-2.4598,-2.4597,-2.4589,-2.458,-2.4584,-2.4616,-2.4598,-2.4598,-2.4598,-2.4598,-2.4599,-2.4323,-2.4328,-2.435,-2.4365,-2.438,-2.4396,-2.4403,-2.4422,-2.4436,-2.4456,-2.4471,-2.4485,-2.4506,-2.4535,-2.4548,-2.456,-2.4567,-2.4567,-2.4566,-2.4566,-2.4563,-2.4579,-2.4564,-2.4564,-2.4564,-2.4564,-2.4564,0,-2.4297,-2.4313,-2.4326,-2.4349,-2.4361,-2.4376,-2.4395,-2.4404,-2.4417,-2.4435,-2.4449,-2.4467,-2.4483,-2.4507,-2.4525,-2.4529,-2.4537,-2.4533,-2.4532,-2.4535,-2.4556,-2.4554,-2.4526,-2.4526,-2.4526,-2.4526,-2.4526,-2.4526,-2.4285,-2.4295,-2.4309,-2.4326,-2.4342,-2.4357,-2.4366,-2.438,-2.4395,-2.4414,-2.4428,-2.4443,-2.4464,-2.4483,-2.4499,-2.4505,-2.451,-2.4503,-2.4512,-2.453,-2.4534,-2.4537,-2.4535,-2.4504,-2.4504,-2.449,-2.449,-2.449]},{"header":{"parameterUnit":"m.s-1","parameterCategory":1,"la1":30.2991,"la2":30.254,"lo1":-89.0895,"lo2":-89.0444,"dy":0.0017,"dx":0.0017,"nx":28,"ny":28,"refTime":"2024-03-30T09:00:00:Z","depth":0,"parameterNumber":3,"parameterNumberName":"V-component_of_WINDS"},"data":[0,0,0,0,0,0,0,0,0,0,0,0,0,0,0,0,0,0,0,0,0,0,0,0,0,0,0,0,0,0,0,0,0,0,0,0,0,0,0,0,0,0,0,0,0,0,0,0,0,0,0,0,0,0,0,0,0,0,4.3984,4.3986,0,4.4112,4.4113,4.4115,4.4102,4.41,4.4098,4.4096,4.4221,4.4226,4.4231,0,0,0,0,0,0,0,0,0,0,0,0,0,4.3726,4.3731,4.3984,4.3986,4.3987,4.4112,4.4113,4.4115,4.4102,4.41,4.4098,4.4095,4.4219,4.4226,4.4232,0,0,0,0,0,0,0,0,0,0,0,0,0,4.3844,4.3732,4.3984,4.3996,4.3998,4.4111,4.4114,4.4116,4.4103,4.41,4.4097,4.4094,4.4217,4.4225,4.4233,4.434,0,0,4.4256,4.426,0,0,0,0,0,0,0,0,4.3837,4.3854,4.3993,4.3995,4.3998,4.4088,4.4068,4.4191,4.4104,4.4063,4.4096,4.4093,4.4179,4.419,4.422,4.4346,4.4351,4.4257,4.4262,4.4265,4.4267,0,0,0,0,0,0,0,4.3829,4.3848,4.4034,4.3995,4.3998,4.3994,4.4008,4.4091,4.4136,4.4066,4.4066,4.4081,4.418,4.4212,4.4223,4.4353,4.4257,4.4264,4.4268,4.4271,4.4576,4.458,0,0,0,0,0,0,4.3819,4.3841,4.403,4.4038,4.3909,4.4001,4.4016,4.4062,4.4135,4.4143,4.4084,4.408,4.4201,4.4214,4.4227,4.436,4.4265,4.4272,4.4277,4.4573,4.4577,4.4581,0,0,0,0,0,0,4.3813,4.3836,4.4025,4.394,4.3964,4.4009,4.406,4.4066,4.4099,4.4148,4.4156,4.4109,4.4199,4.4216,4.4313,4.4364,4.4276,4.4283,4.4569,4.4574,4.4579,4.4626,0,0,0,0,0,0,4.3806,4.3834,4.3876,4.3941,4.3968,4.411,4.4064,4.4071,4.4113,4.411,4.4174,4.4182,4.4198,4.4302,4.4321,4.4373,4.4289,4.4565,4.4571,4.4577,4.462,4.4632,4.4642,0,0,0,0,0,4.3797,4.3881,4.3878,4.3901,4.4022,4.4113,4.4129,4.4147,4.4117,4.416,4.4192,4.418,4.4355,4.4312,4.4333,4.4389,4.4561,4.4569,4.4577,4.4615,4.4629,4.4642,0,0,0,0,0,0,4.3818,4.389,4.3887,4.3995,4.4049,4.4111,4.4165,4.4162,4.4223,4.4217,4.4235,4.425,4.4349,4.4378,4.4328,4.4498,4.4454,4.4467,4.4476,4.449,4.4501,4.4492,4.4295,0,0,0,0,0,4.3836,4.3905,4.3964,4.4054,4.4081,4.4119,4.4159,4.4169,4.4224,4.4246,4.4285,4.4338,4.4405,4.4449,4.4513,4.4624,4.4639,4.4673,4.4684,4.4693,4.4704,4.4767,4.4784,4.4606,4.4606,4.4606,0,0,4.3872,4.392,4.3962,4.406,4.4102,4.4174,4.4137,4.4213,4.4267,4.4257,4.4353,4.4383,4.4443,4.4548,4.4596,4.4576,4.4756,4.4703,4.4709,4.4716,4.4777,4.4794,4.4809,4.4612,4.4611,4.461,0,0,4.3976,4.4018,4.41,4.4144,4.4211,4.4235,4.4255,4.4319,4.434,4.4437,4.4432,4.4494,4.4609,4.4654,4.4691,4.4816,4.4808,4.4836,4.4894,4.4956,4.497,4.4983,4.503,4.5046,4.4846,4.4846,4.4846,0,4.4012,4.4121,4.4141,4.4221,4.4264,4.4262,4.4345,4.4386,4.4469,4.4499,4.4475,4.4622,4.4662,4.4779,4.481,4.4839,4.4863,4.4829,4.4967,4.498,4.4992,4.5037,4.5054,4.4849,4.4849,4.4849,4.4848,0,4.4164,4.424,4.4298,4.4382,4.4432,4.4512,4.4545,4.4593,4.4599,4.4626,4.4726,4.4774,4.485,4.4878,4.4883,4.4998,4.4983,4.4963,4.4919,4.5012,4.5054,4.5071,4.4854,4.4853,4.4852,4.4851,0,0,4.4283,4.4381,4.4402,4.4442,4.4516,4.4574,4.4655,4.4732,4.4774,4.4832,4.4901,4.5,4.4983,4.5026,4.5036,4.509,4.519,4.5064,4.5066,4.5088,4.5321,4.5338,4.5357,4.5185,4.5188,4.5191,4.5317,0,4.4396,4.4542,4.4564,4.4692,4.4764,4.4764,4.4835,4.4888,4.4916,4.498,4.501,4.5082,4.5053,4.5079,4.5133,4.5166,4.5237,4.5157,4.525,4.5253,4.5237,4.5379,4.5396,4.5513,4.5334,4.5336,4.5339,0,4.4547,4.4613,4.475,4.4818,4.4849,4.4912,4.4987,4.5048,4.5108,4.5125,4.5175,4.518,4.5264,4.5217,4.5333,4.5279,4.5318,4.534,4.5345,4.5356,4.5302,4.5396,4.555,4.5569,4.5364,4.5362,4.5361,0,4.4624,4.4746,4.4845,4.4878,4.496,4.5005,4.504,4.5099,4.5145,4.5209,4.5239,4.5311,4.5351,4.5407,4.5431,4.5394,4.5547,4.5501,4.5564,4.5564,4.5597,4.5595,4.5763,4.5619,4.5619,4.5618,4.5618,0,4.4749,4.4833,4.4881,4.4942,4.5037,4.5061,4.5154,4.5188,4.524,4.5307,4.531,4.5372,4.54,4.5467,4.5486,4.5582,4.5598,4.5615,4.5619,4.5616,4.5614,4.5643,4.5636,4.5623,4.5622,4.5621,4.562,0,4.4851,4.4886,4.4994,4.5064,4.5084,4.5151,4.521,4.5269,4.5297,4.5383,4.5404,4.5449,4.5528,4.5558,4.5653,4.5666,4.5778,4.5774,4.5758,4.576,4.5823,4.5817,4.6016,4.6044,4.588,4.5881,4.5882,0,4.4929,4.4994,4.5073,4.512,4.5158,4.5232,4.5281,4.5308,4.5358,4.5434,4.5484,4.5564,4.563,4.5756,4.5797,4.587,4.587,4.5935,4.5881,4.5877,4.5874,4.5871,4.5879,4.5945,4.5947,4.5948,4.5949,0,4.5065,4.5081,4.5152,4.523,4.5289,4.5351,4.5411,4.5448,4.5485,4.5541,4.5624,4.5675,4.5776,4.5855,4.5932,4.5967,4.5965,4.5966,4.5985,4.5983,4.5972,4.5982,4.5788,4.5961,4.596,4.5959,4.5958,4.5958,4.516,4.5219,4.5285,4.5365,4.5414,4.5471,4.5532,4.557,4.564,4.5726,4.5737,4.5827,4.5888,4.5991,4.6031,4.6101,4.6083,4.611,4.6117,4.6124,4.613,4.596,4.6114,4.6114,4.6114,4.6113,4.6113,0,4.5298,4.5342,4.5415,4.5502,4.5565,4.556,4.5627,4.568,4.576,4.5818,4.5884,4.5981,4.6059,4.6107,4.6186,4.6233,4.6234,4.6253,4.625,4.6259,4.6139,4.6117,4.6251,4.6251,4.6251,4.6251,4.6251,4.6251,4.5378,4.548,4.5504,4.5631,4.5673,4.5763,4.5803,4.5856,4.5903,4.6013,4.6079,4.6111,4.6165,4.6249,4.6321,4.6332,4.6362,4.6383,4.6394,4.6281,4.6267,4.6254,4.6232,4.6389,4.6389,4.6508,4.6509,4.651]}]]